Location: Hurstbourne Priors
(51.2000°N, 1.3667°W)
Time: 13:02:55
(UTC+00:00)

Cosmos 2058 Rocket - Pass Details

Date: 09 April 2020
Orbit: 610 x 640 km, 82.5° (Epoch: 28 May)

Event Time Altitude Azimuth Distance (km) Brightness Sun altitude
Rises 20:31:23 0° 202° (SSW) 2,935 6.4 -14.9°
Reaches altitude 10° 20:33:40 10° 207° (SSW) 2,030 5.6 -15.2°
Maximum altitude 20:38:05 53° 285° (WNW) 790 3.9 -15.8°
Drops below altitude 10° 20:42:30 10° 2° (N) 2,037 6.2 -16.3°
Sets 20:44:48 0° 8° (N) 2,946 7.0 -16.6°
